Wind_Speed
33 32 30 29 31 30 28 31 35 36 36 38 38 39 40 41 43 43 42 44 45 49 51 53 57 59 59 61 61 63 65 66 66 66 67 65 67 69 70 71 69 72 75 74 75 76 78 79 81
36 32 31 30 33 33 31 34 35 38 38 40 43 44 44 45 47 47 48 49 50 52 54 57 60 62 63 65 66 67 69 71 69 70 69 70 72 72 74 74 76 76 78 79 80 81 82 83 83
36 36 35 35 35 33 35 38 41 41 42 43 45 46 48 49 50 51 52 53 55 57 60 62 64 64 66 67 68 68 68 68 70 70 70 72 74 76 77 78 80 81 83 83 84 85 85 84 85
38 37 39 39 35 31 39 43 43 45 46 48 49 51 53 53 54 56 57 59 60 63 63 63 64 64 64 62 62 65 67 69 70 71 72 74 76 78 80 82 84 85 87 87 87 87 87 86 86
42 41 41 42 42 42 47 46 49 49 51 52 54 55 56 58 58 60 60 59 59 59 57 57 57 58 59 61 65 67 68 70 73 74 76 79 81 82 83 86 88 90 90 90 89 88 87 89 92
40 43 42 44 43 48 49 51 52 53 53 55 57 58 57 57 58 58 55 53 52 53 55 57 58 61 64 65 67 70 72 76 77 79 82 83 84 86 88 90 91 92 93 93 92 93 94 95 93
40 42 42 45 48 47 49 53 52 53 54 54 53 54 52 50 47 46 48 51 52 54 56 59 62 65 69 72 75 77 78 80 80 82 84 86 89 90 91 91 91 94 95 96 97 97 97 94 91
34 37 42 45 48 47 48 52 52 46 48 42 42 42 44 47 48 49 50 53 55 57 61 64 68 70 73 76 78 81 82 85 84 86 88 89 90 91 91 93 93 95 95 93 91 91 91 91 90
31 33 35 37 37 36 42 44 39 41 39 41 44 46 49 52 53 56 58 60 63 65 68 71 74 75 77 79 80 81 83 85 88 91 91 91 93 93 92 91 92 90 91 92 94 95 95 96 94
35 34 36 33 36 36 39 38 37 40 40 45 46 49 52 56 59 60 62 66 69 72 73 74 76 77 78 80 80 81 81 82 83 86 89 91 92 93 95 93 94 96 97 98 97 96 96 93 93
35 37 36 37 34 38 38 34 39 42 42 45 48 52 56 59 61 64 67 69 72 75 74 75 77 77 77 75 77 79 81 84 84 86 92 91 93 95 97 98 99 98 97 97 98 99 97 98 99
36 37 37 38 38 37 40 38 45 46 47 50 52 56 59 61 63 68 66 72 76 75 74 75 73 72 74 76 80 83 86 86 87 87 90 95 96 96 98 99 100 101 101 101 100 100 100 100 100
34 35 36 39 40 40 39 44 47 49 50 52 56 59 61 62 67 68 72 75 75 71 69 68 69 73 77 80 82 84 87 88 90 92 93 95 98 100 101 102 102 102 102 102 102 102 102 102 103
31 33 33 37 39 40 42 42 47 51 55 55 56 59 62 64 66 70 74 65 62 65 67 69 73 76 77 79 83 85 86 89 91 93 95 98 99 101 102 103 103 103 102 102 104 105 107 109 110
33 31 34 38 42 42 45 45 50 54 55 57 65 65 68 70 71 70 61 59 63 67 70 73 72 75 76 77 80 83 88 91 93 95 96 99 98 99 101 101 102 103 106 108 109 111 113 114 113
35 39 41 40 46 49 50 48 53 55 58 62 66 69 71 70 62 54 57 61 65 67 68 69 70 70 74 78 81 84 88 91 92 93 94 95 96 98 100 102 105 107 110 113 114 115 114 113 112
41 42 45 44 47 46 48 52 58 60 60 61 65 70 66 52 52 55 59 62 63 63 64 64 68 73 78 82 84 88 90 90 91 92 94 96 98 101 104 107 109 112 113 113 113 112 111 109 106
37 39 40 42 50 53 57 59 61 62 63 65 61 51 50 53 55 56 58 58 58 59 63 68 73 79 81 86 89 91 90 89 91 94 97 100 103 105 106 109 110 110 110 110 110 108 105 102 99
27 32 38 40 46 46 49 50 49 49 47 41 39 46 49 49 52 54 52 54 59 64 70 74 79 83 85 90 92 91 92 93 95 97 98 101 103 105 107 107 108 108 106 105 103 100 97 94 91
26 30 34 35 36 34 34 33 32 32 34 39 41 41 43 47 46 50 54 60 65 69 73 77 81 84 88 89 90 91 94 96 97 98 100 102 103 103 105 106 106 104 101 99 95 92 88 84 79
26 31 28 26 26 28 29 31 31 33 33 33 35 37 41 44 50 54 59 64 68 72 75 79 80 84 88 89 92 95 95 97 98 101 103 102 103 104 103 102 100 98 94 90 86 80 76 71 69
25 24 21 25 26 24 25 24 23 26 28 32 36 39 43 48 54 58 62 65 69 73 76 77 82 86 89 94 95 96 98 99 101 101 103 104 103 102 99 96 92 87 82 78 73 69 66 63 61
19 19 19 19 17 17 16 21 21 28 32 35 39 42 46 51 57 59 62 65 71 73 74 78 84 89 93 95 97 98 99 99 100 101 102 102 99 96 92 87 81 76 72 67 63 62 59 57 56
19 18 16 16 15 16 18 22 22 30 35 37 41 46 50 56 59 62 64 68 73 73 76 81 86 92 97 98 96 97 99 100 101 102 100 97 93 89 82 76 72 68 64 62 59 57 56 54 52
20 19 19 19 17 20 23 27 31 33 37 42 45 50 54 57 61 63 66 71 73 74 78 83 88 95 101 98 97 98 100 101 100 97 94 90 85 78 73 69 66 63 60 58 56 55 53 51 49
22 19 21 22 23 27 28 33 31 37 42 46 51 54 56 58 63 64 68 72 73 77 82 86 95 99 100 99 99 100 100 99 95 92 87 81 76 71 66 63 60 59 57 55 53 52 49 49 46
22 20 22 24 26 29 31 34 39 40 45 48 49 52 55 60 62 65 70 72 75 79 84 90 96 102 100 100 99 99 97 94 91 87 80 74 69 65 61 59 58 57 55 52 49 47 45 44 43
22 21 22 26 28 30 33 35 37 42 42 45 48 52 56 60 62 66 70 72 76 82 86 94 98 101 100 99 97 94 93 90 85 79 73 69 64 60 58 57 56 55 52 47 44 44 43 43 44
22 23 23 26 28 31 33 34 34 39 42 46 50 55 60 60 64 67 70 74 78 83 90 95 100 98 98 96 93 91 89 85 78 73 69 63 59 57 56 54 53 51 48 47 45 43 44 45 45
20 24 24 25 26 28 30 32 33 39 45 49 53 58 60 63 65 68 71 75 80 85 92 97 96 97 94 92 89 88 85 79 74 70 64 58 56 55 53 50 49 48 47 44 46 47 46 45 44
Wind_Direction
223 228 230 237 243 247 246 253 257 262 265 267 271 274 277 280 282 282 282 280 283 285 286 288 288 289 290 290 290 291 291 291 289 290 291 292 291 291 290 289 288 288 287 285 285 286 284 283 283
229 232 234 238 245 248 251 256 263 264 268 271 276 279 282 284 286 285 288 285 284 283 282 282 284 286 287 288 290 292 291 291 292 292 291 291 290 289 290 290 289 286 286 286 285 286 286 285 285
230 237 243 243 247 250 251 257 261 264 267 272 276 280 282 284 286 285 284 283 283 284 285 284 283 285 287 287 289 289 290 290 289 289 290 290 290 291 289 288 287 287 288 289 287 287 286 285 284
232 235 240 245 250 253 256 260 261 265 270 274 277 278 278 281 282 283 284 284 284 286 287 286 286 286 287 287 287 287 289 291 294 294 293 291 289 288 289 290 289 288 289 289 288 285 284 284 283
238 240 243 247 251 255 260 262 266 270 274 276 279 279 280 281 283 286 287 286 286 286 286 286 287 290 290 290 290 294 294 293 292 292 292 291 291 291 291 290 290 289 288 287 286 284 283 282 280
241 246 251 254 256 259 264 266 269 271 274 277 278 279 282 284 285 286 287 288 288 289 289 291 292 292 294 295 294 293 292 292 293 293 293 292 292 291 291 290 290 289 288 288 287 286 285 285 284
244 245 246 253 257 260 264 269 271 272 276 278 282 284 283 280 279 283 287 290 293 291 291 293 292 292 292 294 295 295 296 294 293 292 292 291 291 291 292 291 290 290 291 290 289 288 286 285 284
247 247 250 254 258 262 263 267 274 279 278 280 280 280 280 281 286 289 289 290 292 294 294 294 294 294 295 295 295 294 294 295 293 291 291 291 290 290 291 289 288 288 288 287 286 285 285 284 285
249 251 254 255 261 270 267 269 275 280 283 282 282 286 288 289 291 293 294 295 295 294 295 295 297 297 297 295 295 295 293 293 293 294 293 292 292 291 289 290 290 290 290 291 290 290 289 287 285
254 255 258 261 266 268 268 277 276 279 285 284 288 292 292 293 293 295 296 294 294 294 295 296 297 296 296 296 295 295 294 293 295 294 294 294 294 295 295 295 294 294 295 294 292 291 290 288 287
255 257 262 266 270 273 279 285 284 284 284 289 291 292 291 293 296 295 297 297 296 297 299 297 299 298 297 297 294 293 293 296 297 297 298 298 296 296 296 296 296 295 293 292 291 290 289 287 286
262 265 267 270 272 278 278 280 282 286 288 291 292 292 293 295 296 297 298 298 297 300 300 299 300 299 298 297 298 301 302 301 299 298 297 297 297 297 296 296 295 295 294 293 292 291 290 288 287
262 264 267 271 274 278 282 283 288 289 291 291 293 295 297 296 295 298 302 303 301 301 302 303 303 302 303 305 304 302 302 301 300 299 299 298 298 297 297 296 296 296 296 296 294 293 290 288 287
258 264 271 271 272 277 284 287 290 293 294 294 295 297 299 298 300 303 304 304 306 305 305 304 304 306 305 304 305 304 302 301 301 300 299 299 298 298 299 299 298 297 295 294 293 291 290 288 286
267 271 271 274 276 280 283 284 283 287 291 295 299 299 299 299 302 304 304 304 305 306 303 305 306 304 307 305 304 305 304 303 302 301 301 301 300 300 300 299 297 296 295 293 292 290 289 288 287
262 271 271 276 278 280 282 284 287 291 292 294 294 295 297 304 302 302 303 303 301 303 307 304 308 307 308 307 308 309 308 305 304 303 303 302 301 300 299 298 297 295 293 292 292 292 292 290 289
257 267 271 270 276 280 283 286 287 288 288 287 289 295 300 302 303 303 301 301 308 306 307 308 308 309 310 311 310 309 309 307 306 306 304 302 301 300 299 298 296 295 296 295 294 293 292 292 291
263 268 273 275 274 277 277 278 279 281 282 285 291 296 300 303 302 301 306 308 307 309 309 310 312 311 311 312 311 310 309 308 307 305 304 304 302 300 299 299 299 298 297 296 296 296 295 294 293
265 270 274 277 278 279 281 285 286 287 289 295 295 299 301 302 303 310 309 311 309 309 310 312 313 313 313 312 312 312 311 309 308 307 305 303 302 302 302 301 300 300 300 299 298 298 297 296 294
274 290 290 287 284 283 284 287 293 295 298 299 299 300 301 307 310 310 310 309 311 311 312 313 313 314 313 313 314 314 312 311 309 307 306 305 304 303 303 304 303 302 302 302 301 299 299 297 296
285 290 295 290 287 284 284 290 297 300 301 301 303 308 311 311 311 311 311 312 313 313 314 314 315 315 315 316 315 314 313 312 311 309 308 307 308 307 306 306 306 305 305 303 302 302 299 299 298
283 295 292 288 293 298 303 307 307 303 304 307 311 313 313 314 315 317 316 315 315 316 316 316 317 318 318 317 317 316 315 313 311 311 311 311 310 310 309 309 308 307 306 305 305 303 303 303 301
285 288 300 303 308 314 317 308 314 304 312 316 317 319 317 317 320 319 318 318 319 318 317 318 320 320 320 320 319 317 315 314 314 314 313 313 313 312 312 312 311 309 308 309 309 308 307 305 304
280 288 299 317 317 315 314 312 328 314 315 318 320 318 318 318 319 319 319 320 320 319 319 322 321 322 323 322 320 317 317 318 317 317 316 316 316 315 315 314 313 313 314 315 313 311 310 308 307
273 283 292 303 308 311 310 315 321 320 319 319 317 316 316 317 318 320 321 322 321 320 322 322 322 324 325 323 321 321 321 320 320 319 319 319 319 319 318 318 319 318 318 317 316 315 314 312 311
268 279 286 296 299 308 309 314 312 316 316 317 315 315 316 317 319 321 323 322 322 323 324 324 324 326 325 325 325 325 323 322 322 322 322 323 322 322 322 322 322 321 321 321 319 318 317 316 316
267 283 284 292 300 305 311 306 308 315 314 313 315 317 318 319 321 323 323 323 324 326 327 325 327 327 328 328 327 325 324 325 325 325 326 326 326 326 326 326 325 324 324 325 324 323 321 320 318
264 277 284 291 295 302 307 309 312 314 314 317 320 322 322 323 325 324 324 325 326 329 328 327 329 331 330 329 328 327 328 328 328 329 329 330 330 330 330 329 327 327 330 332 330 328 325 324 324
262 271 277 288 295 303 306 310 315 315 319 323 325 326 326 327 326 326 325 327 330 330 329 331 331 332 331 331 331 331 331 332 333 333 334 335 334 333 333 332 331 333 335 336 333 332 333 332 330
263 269 278 288 297 303 308 311 319 321 325 326 328 328 328 328 327 327 328 331 332 331 333 333 334 333 334 334 334 335 336 337 338 338 338 339 337 336 337 338 336 336 338 338 340 339 336 334 332
Height
10862 10863 10865 10865 10866 10868 10869 10868 10865 10864 10863 10862 10860 10859 10858 10857 10856 10854 10853 10850 10847 10844 10842 10838 10833 10829 10825 10821 10816 10812 10807 10802 10799 10794 10789 10785 10781 10776 10772 10768 10765 10762 10756 10753 10748 10744 10739 10736 10731
10859 10861 10862 10863 10863 10863 10864 10861 10862 10859 10859 10857 10855 10854 10853 10851 10849 10847 10845 10842 10839 10837 10833 10829 10824 10819 10814 10810 10805 10800 10795 10790 10785 10781 10776 10772 10767 10763 10758 10754 10750 10746 10741 10736 10732 10726 10721 10718 10713
10858 10860 10859 10860 10861 10863 10859 10856 10856 10855 10854 10852 10850 10848 10845 10843 10842 10839 10836 10834 10830 10827 10823 10818 10812 10808 10803 10798 10793 10788 10784 10778 10773 10768 10764 10759 10754 10749 10743 10738 10733 10728 10722 10717 10713 10707 10703 10699 10694
10853 10856 10854 10857 10857 10856 10854 10851 10851 10851 10850 10847 10845 10842 10839 10837 10834 10830 10828 10825 10822 10818 10812 10807 10801 10796 10792 10787 10781 10775 10770 10765 10760 10755 10749 10744 10737 10731 10726 10721 10714 10708 10702 10697 10693 10688 10684 10680 10675
10850 10851 10851 10851 10851 10851 10848 10848 10847 10846 10844 10841 10839 10836 10833 10830 10827 10823 10820 10815 10810 10805 10800 10794 10790 10786 10780 10775 10769 10764 10758 10752 10745 10739 10732 10725 10719 10714 10708 10701 10694 10688 10683 10677 10672 10667 10663 10658 10653
10845 10846 10849 10847 10849 10845 10844 10842 10840 10838 10837 10834 10831 10828 10825 10822 10818 10813 10809 10805 10801 10796 10791 10787 10783 10776 10770 10764 10757 10750 10744 10736 10729 10722 10715 10709 10702 10695 10689 10681 10674 10667 10660 10654 10648 10642 10636 10632 10629
10839 10840 10842 10841 10840 10839 10837 10833 10833 10831 10829 10826 10824 10820 10817 10811 10808 10805 10802 10799 10795 10789 10783 10778 10771 10765 10757 10751 10744 10736 10728 10720 10715 10707 10699 10691 10684 10677 10669 10661 10653 10645 10637 10629 10623 10616 10610 10605 10602
10832 10833 10835 10836 10833 10835 10832 10828 10824 10825 10820 10819 10817 10812 10806 10803 10802 10798 10795 10791 10785 10779 10773 10766 10759 10753 10745 10738 10730 10720 10713 10704 10698 10689 10681 10674 10666 10656 10649 10640 10633 10624 10617 10609 10602 10596 10590 10584 10580
10827 10828 10829 10829 10828 10828 10824 10820 10822 10816 10815 10811 10808 10804 10798 10794 10792 10789 10785 10779 10772 10766 10761 10754 10746 10738 10732 10722 10715 10706 10697 10689 10678 10668 10659 10652 10642 10634 10630 10620 10608 10600 10592 10585 10575 10569 10565 10557 10554
10820 10822 10822 10825 10823 10821 10817 10817 10815 10810 10809 10804 10801 10796 10789 10785 10782 10779 10773 10768 10759 10754 10747 10740 10732 10725 10717 10708 10700 10691 10682 10673 10662 10651 10643 10631 10621 10610 10598 10593 10587 10576 10567 10557 10551 10545 10535 10532 10524
10815 10817 10818 10817 10816 10813 10810 10814 10805 10801 10802 10796 10792 10787 10781 10776 10773 10767 10761 10753 10746 10739 10733 10724 10717 10709 10701 10693 10682 10673 10666 10656 10646 10635 10615 10609 10597 10589 10578 10569 10559 10553 10546 10536 10527 10518 10513 10504 10497
10810 10813 10812 10812 10808 10808 10804 10804 10797 10795 10793 10789 10784 10779 10772 10767 10761 10755 10749 10740 10733 10727 10719 10711 10703 10694 10685 10675 10665 10655 10643 10633 10624 10615 10603 10588 10577 10568 10556 10546 10535 10526 10517 10508 10499 10491 10482 10474 10467
10805 10806 10805 10805 10803 10801 10798 10796 10792 10788 10785 10781 10776 10770 10764 10757 10750 10745 10736 10727 10722 10713 10705 10698 10690 10679 10669 10659 10649 10638 10626 10616 10604 10593 10581 10569 10555 10544 10532 10522 10511 10499 10489 10478 10468 10459 10451 10443 10436
10798 10800 10800 10797 10794 10795 10790 10790 10785 10780 10776 10773 10767 10762 10755 10748 10742 10734 10727 10718 10710 10702 10694 10685 10676 10667 10657 10647 10634 10621 10609 10596 10585 10573 10561 10545 10535 10522 10508 10496 10484 10473 10462 10451 10441 10431 10422 10413 10404
10792 10794 10793 10790 10788 10786 10784 10783 10775 10773 10769 10764 10756 10752 10745 10739 10733 10725 10716 10708 10700 10691 10682 10673 10665 10654 10644 10632 10619 10607 10591 10578 10564 10551 10540 10525 10513 10499 10486 10473 10460 10447 10435 10423 10411 10399 10389 10380 10370
10787 10787 10786 10785 10781 10779 10775 10775 10766 10765 10761 10754 10747 10741 10734 10729 10722 10714 10706 10698 10690 10682 10673 10663 10653 10642 10630 10616 10603 10589 10574 10560 10546 10531 10518 10505 10491 10477 10463 10450 10436 10421 10407 10393 10379 10366 10355 10343 10334
10780 10780 10778 10780 10772 10770 10768 10765 10760 10756 10752 10745 10738 10732 10726 10720 10711 10705 10697 10688 10680 10671 10662 10652 10641 10629 10616 10602 10587 10574 10559 10540 10525 10512 10497 10483 10470 10455 10438 10422 10406 10390 10375 10360 10346 10333 10322 10309 10299
10776 10772 10769 10769 10766 10762 10758 10756 10752 10747 10742 10738 10733 10726 10719 10712 10704 10695 10688 10680 10670 10661 10652 10641 10629 10615 10602 10585 10570 10555 10540 10527 10511 10495 10478 10462 10444 10427 10410 10393 10377 10361 10346 10330 10314 10301 10288 10277 10267
10768 10765 10762 10761 10755 10754 10749 10745 10741 10737 10734 10731 10726 10720 10712 10704 10695 10688 10679 10671 10662 10652 10640 10628 10614 10600 10585 10569 10552 10536 10521 10506 10490 10474 10458 10437 10418 10400 10384 10366 10349 10332 10317 10302 10286 10272 10259 10247 10236
10761 10760 10757 10753 10750 10747 10742 10738 10735 10732 10728 10724 10719 10713 10705 10698 10690 10681 10672 10663 10652 10640 10627 10615 10601 10585 10568 10553 10536 10520 10503 10485 10466 10447 10429 10412 10394 10376 10357 10338 10320 10302 10286 10271 10257 10244 10232 10220 10210
10757 10754 10751 10748 10745 10742 10739 10735 10732 10727 10723 10718 10712 10706 10700 10692 10684 10674 10664 10652 10641 10628 10616 10602 10588 10572 10553 10537 10520 10501 10482 10463 10442 10421 10402 10385 10367 10349 10330 10311 10292 10275 10259 10244 10230 10220 10208 10198 10186
10751 10749 10746 10744 10741 10739 10734 10731 10728 10723 10719 10713 10707 10701 10694 10685 10676 10665 10654 10642 10631 10618 10604 10589 10573 10558 10541 10521 10500 10480 10460 10439 10418 10398 10377 10357 10338 10319 10301 10284 10268 10251 10236 10222 10210 10198 10187 10177 10167
10747 10745 10743 10740 10738 10735 10733 10728 10725 10719 10713 10707 10701 10694 10686 10677 10668 10657 10645 10633 10621 10608 10592 10577 10561 10544 10525 10504 10482 10460 10439 10417 10396 10375 10354 10332 10313 10295 10277 10260 10243 10229 10216 10204 10191 10178 10168 10159 10151
10743 10742 10740 10737 10735 10732 10729 10724 10722 10713 10707 10702 10695 10688 10680 10671 10660 10648 10636 10624 10610 10595 10580 10565 10548 10529 10508 10485 10463 10440 10418 10394 10372 10350 10329 10309 10290 10272 10256 10239 10223 10209 10196 10184 10172 10162 10153 10144 10135
10739 10738 10737 10734 10731 10728 10725 10720 10714 10710 10704 10696 10690 10682 10673 10663 10652 10640 10628 10614 10599 10585 10569 10553 10534 10514 10492 10468 10443 10418 10395 10373 10352 10330 10310 10290 10271 10253 10237 10221 10206 10193 10181 10169 10158 10148 10138 10129 10121
10735 10734 10733 10730 10727 10723 10720 10714 10711 10704 10697 10691 10683 10675 10666 10655 10643 10631 10618 10603 10588 10573 10557 10539 10519 10498 10473 10447 10422 10399 10375 10354 10332 10311 10292 10273 10254 10237 10221 10207 10193 10179 10168 10157 10147 10137 10127 10118 10110
10731 10730 10729 10726 10724 10720 10716 10710 10703 10700 10691 10685 10679 10669 10658 10647 10635 10622 10608 10593 10578 10563 10545 10525 10504 10480 10453 10429 10405 10381 10359 10337 10315 10294 10276 10257 10240 10224 10208 10194 10180 10168 10158 10149 10139 10129 10120 10110 10101
10726 10726 10724 10722 10719 10715 10710 10706 10700 10693 10689 10681 10671 10661 10650 10638 10626 10613 10598 10583 10568 10552 10533 10513 10489 10463 10438 10415 10391 10366 10344 10322 10300 10280 10261 10244 10227 10211 10196 10183 10171 10160 10151 10143 10132 10121 10111 10102 10092
10722 10721 10719 10717 10714 10710 10705 10702 10696 10688 10681 10673 10663 10652 10641 10630 10617 10604 10589 10574 10559 10541 10522 10499 10475 10450 10425 10402 10377 10354 10330 10308 10287 10267 10249 10232 10216 10201 10188 10177 10164 10154 10144 10135 10124 10114 10103 10093 10083
10716 10715 10714 10713 10709 10704 10700 10695 10691 10684 10676 10666 10655 10644 10633 10622 10609 10595 10581 10566 10550 10531 10511 10488 10463 10438 10414 10391 10366 10342 10319 10296 10275 10256 10239 10223 10208 10195 10184 10171 10159 10148 10139 10129 10118 10106 10095 10085 10075